Location: Pasarilla del Rebollar
(40.6790°N, 5.0062°W)
Time: 11:36:39
(UTC+00:00)

SL-24 R/B - Pass Details

Date: 22 April 2026
Orbit: 501 x 977 km, 97.5° (Epoch: 14 May)

Event Time Altitude Azimuth Distance (km) Brightness Sun altitude
Rises 04:59:47 0° 5° (N) 2,873 7.9 -6.4°
Reaches altitude 10° 05:02:07 10° 359° (N) 1,899 6.9 -6.0°
Maximum altitude 05:05:59 44° 288° (WNW) 760 4.2 -5.3°
Drops below altitude 10° 05:09:30 10° 215° (SW) 1,737 5.9 -4.7°
Sets 05:11:34 0° 209° (SSW) 2,596 6.8 -4.4°
